User: anonymous   Login
Location: Unspecified
(0.0000°N, 0.0000°E)
Time: 01:17:20
(UTC+00:00)
Language:

Vela 1A - Orbit

View from above orbital plane
View from above orbital plane
View from above satellite
View from above satellite

Ground track
Ground track

The orbit data is extracted from the following two-line orbital elements,

1   692U 63039C   20301.50418957 -.00001786  00000-0  00000+0 0  9995
2   692  15.6206 317.1356 5483363 254.8872 359.9539  0.22093399 46014
Epoch (UTC): 27 October 2020 12:06:01
Eccentricity: 0.5483363
inclination: 15.6206°
perigee height: 45826 km
apogee height: 172581 km
right ascension of ascending node: 317.1356°
argument of perigee: 254.8872°
revolutions per day: 0.22093399
mean anomaly at epoch: 359.9539°
orbit number at epoch: 4601

The dashed part of the orbit path shows where the satellite is in the earth's shadow,  

DLR